Location: Kyle
(50.8323°N, 108.0393°W)
Time: 23:33:47
(UTC+00:00)

Envisat - Visible Passes

Search period start: 28 January 2022 00:00
Search period end: 07 February 2022 00:00
Orbit: 764 x 766 km, 98.2° (Epoch: 28 January)

Date Brightness Start Highest point End Pass type
(mag) Time Alt. Az. Time Alt. Az. Time Alt. Az.
28 Jan 4.6 11:26:18 10° NNE 11:30:53 32° E 11:35:25 10° SSE visible
28 Jan 3.3 13:05:14 10° N 13:10:00 42° WNW 13:14:45 10° SW visible
29 Jan 5.8 00:26:25 10° SW 00:30:05 20° W 00:33:44 10° NW visible
29 Jan 5.6 10:50:22 10° NE 10:53:36 17° E 10:56:49 10° SE visible
29 Jan 2.8 12:28:08 10° NNE 12:33:15 81° WNW 12:38:20 10° SSW visible
29 Jan 4.5 14:08:34 10° NNW 14:11:31 16° NW 14:14:27 10° W visible
30 Jan 3.7 11:51:20 10° NNE 11:56:19 52° E 12:01:16 10° S visible
30 Jan 3.9 13:30:49 10° N 13:35:05 28° WNW 13:39:19 10° WSW visible
31 Jan 6.2 00:53:50 10° WSW 00:55:43 12° W 00:57:37 10° WNW visible
31 Jan 4.9 11:14:54 10° NE 11:19:11 26° E 11:23:25 10° SSE visible
31 Jan 3.1 12:53:32 10° N 12:58:28 51° WNW 13:03:22 10° SW visible
01 Feb 5.8 10:39:22 10° NE 10:41:50 13° E 10:44:16 10° ESE visible
01 Feb 3.0 12:16:32 10° NNE 12:21:39 84° ESE 12:26:44 10° SSW visible
01 Feb 4.3 13:56:37 10° NNW 14:00:04 19° NW 14:03:30 10° W visible
02 Feb 4.1 11:39:49 10° NNE 11:44:39 42° E 11:49:28 10° SSE visible
02 Feb 3.6 13:19:04 10° N 13:23:35 33° WNW 13:28:05 10° SW visible
03 Feb 6.0 00:41:05 10° WSW 00:43:57 15° W 00:46:49 10° NW visible
03 Feb 5.2 11:03:33 10° NE 11:07:27 22° E 11:11:20 10° SE visible
03 Feb 2.9 12:41:52 10° N 12:46:54 62° WNW 12:51:54 10° SSW visible
04 Feb 6.0 10:29:00 10° ENE 10:30:03 11° E 10:31:05 10° E visible
04 Feb 3.2 12:04:57 10° NNE 12:10:02 68° ESE 12:15:06 10° S visible
04 Feb 4.1 13:44:45 10° N 13:48:36 22° WNW 13:52:26 10° WSW visible
05 Feb 4.5 11:28:20 10° NNE 11:32:59 34° E 11:37:35 10° SSE visible
05 Feb 3.4 13:07:20 10° N 13:12:03 40° WNW 13:16:45 10° SW visible
06 Feb 5.5 10:52:19 10° NE 10:55:42 18° E 10:59:06 10° SE visible
06 Feb 2.9 12:30:13 10° NNE 12:35:20 76° WNW 12:40:24 10° SSW visible
